Find Starlink 5161

NORAD ID: 54163 Int'l Des: 2022-141 Owner: SPXS Country: US Constellation: starlink operational
LEOCIRCULAR

当前视图

正在加载3D地球...

About Starlink 5161

Starlink 5161 (NORAD 54163) is a starlink constellation satellite (v1.5) launched Oct 28, 2022 by SPXS of US. It operates in LEO, CIRCULAR orbit with a mass of 305.00 kg.

即将过境

Passes for default location (London). Set your location on the main map for personalized predictions.

高度历史

Loading altitude history...

两行轨道根数

1 54163U 22141G 26257.30912101 .00000491 00000-0 25681-4 0 9998
2 54163 53.1589 222.6586 0001233 92.8620 267.2524 15.34393431214538
Epoch: Sep 14, 2026 • Age: 37 hours

当前状态

高度 474.0 km
远地点 / 近地点 N/A
速度 7.63 km/s
星下点 -34.25°S, 125.93°E
发射日期 Oct 28, 2022
运行时间 3.8 years
类型 internet

技术详情

分类 Payload
质量 305.00 kg
干质量 290.00 kg
长度 0.20 m
跨度 9.00 m
形状 ? Box + pan
制造商 SPXS
平台类型 Starlink
阶段状态 In Orbit
所有者/国家 SPXS/US

Most Searched